GW5716 Weather Reports


Display with metric or nautical units.
time (UTC)temp
F
wind
direction
speed
MPH
gust
MPH
rain 1hr
in
rain 24hr
in
rain mn
in
humidity
%
barometer
mb
20260507114023 58 310 0.0 0.0 0.00 0.00 0.00 95 1016.4
20260507113030 58 310 0.0 0.0 0.00 0.00 0.00 95 1016.5
20260507112036 58 310 0.0 0.0 0.00 0.00 0.00 95 1016.5
20260507111028 58 310 0.0 0.0 0.00 0.00 0.00 95 1016.6
20260507110034 58 310 0.0 0.0 0.00 0.00 0.00 95 1016.5
20260507105020 58 310 0.0 0.0 0.00 0.00 0.00 95 1016.7
20260507104036 58 310 0.0 0.0 0.00 0.00 0.00 95 1016.7
20260507103028 58 310 0.0 0.0 0.00 0.00 0.00 95 1016.7
20260507102036 58 310 0.0 0.0 0.00 0.00 0.00 95 1016.7
20260507101022 58 310 0.0 0.0 0.00 0.00 0.00 95 1016.7
20260507100020 58 310 0.0 0.0 0.00 0.00 0.00 95 1016.7
20260507095029 59 310 0.0 0.0 0.00 0.00 0.00 94 1016.6
20260507094027 59 310 0.0 0.0 0.00 0.00 0.00 95 1016.8
20260507093033 59 310 0.0 0.0 0.00 0.00 0.00 95 1016.9
20260507092021 59 310 0.0 0.0 0.00 0.00 0.00 94 1017.1
20260507091032 59 310 0.0 0.0 0.00 0.00 0.00 94 1017.1
20260507090039 59 310 0.0 0.0 0.00 0.00 0.00 94 1017.1
20260507085024 59 310 0.0 0.0 0.00 0.00 0.00 94 1017.3
20260507084022 60 310 0.0 0.0 0.00 0.00 0.00 94 1017.6
20260507083033 60 310 0.0 0.0 0.00 0.00 0.00 94 1017.6
20260507082021 60 310 0.0 0.0 0.00 0.00 0.00 94 1017.5
20260507081028 60 310 0.0 0.0 0.00 0.00 0.00 94 1017.7
20260507080035 60 310 0.0 0.0 0.00 0.00 0.00 94 1017.7
20260507075026 60 310 0.0 0.0 0.00 0.00 0.00 94 1017.7
20260507072024 61 310 3.0 5.0 0.00 0.00 0.00 93 1017.6
20260507071035 61 310 1.0 4.0 0.00 0.00 0.00 93 1017.6
20260507070034 61 310 1.0 5.0 0.00 0.00 0.00 93 1017.8
20260507063030 61 324 5.0 8.0 0.00 0.00 0.00 93 1018.1
20260507062021 61 328 1.0 6.0 0.00 0.00 0.00 92 1018.0
20260507061028 61 328 0.0 6.0 0.00 0.00 0.00 92 1018.0
20260507060035 61 328 3.0 6.0 0.00 0.00 0.00 92 1017.9
20260507054042 61 328 4.0 10.0 0.00 0.00 0.00 92 1018.0
20260507053020 61 4 4.0 9.0 0.00 0.00 0.00 92 1017.7
20260507052042 61 336 5.0 9.0 0.00 0.00 0.00 91 1017.7
20260507051047 61 339 5.0 8.0 0.00 0.00 0.00 91 1017.7
20260507050037 62 332 5.0 6.0 0.00 0.00 0.00 91 1017.7
20260507045046 62 332 4.0 7.0 0.00 0.00 0.00 91 1017.6
20260507044046 62 331 4.0 7.0 0.00 0.00 0.00 90 1017.6
20260507043024 62 331 4.0 8.0 0.00 0.00 0.00 90 1017.5
20260507042040 62 332 4.0 7.0 0.00 0.00 0.00 89 1017.4
20260507041033 62 333 5.0 8.0 0.00 0.00 0.00 89 1017.4
20260507040024 62 307 5.0 9.0 0.00 0.00 0.00 89 1017.4
20260507035046 62 330 4.0 6.0 0.00 0.00 0.00 89 1017.3
20260507034042 62 312 4.0 8.0 0.00 0.00 0.00 89 1017.2
20260507033024 62 326 3.0 8.0 0.00 0.00 0.00 89 1017.2
20260507032046 62 316 3.0 10.0 0.00 0.00 0.00 89 1017.1
20260507031038 62 340 5.0 11.0 0.00 0.00 0.00 89 1017.0
20260507030049 62 330 3.0 9.0 0.00 0.00 0.00 89 1016.9
20260507024040 62 295 8.0 11.0 0.00 0.00 0.00 88 1016.8
20260507023019 63 317 7.0 12.0 0.00 0.00 0.00 87 1016.8
20260507022041 63 313 6.0 10.0 0.00 0.00 0.00 86 1016.6
20260507020037 63 287 9.0 11.0 0.00 0.00 0.00 89 1016.6
20260507015047 63 4 7.0 13.0 0.00 0.00 0.00 88 1016.6
20260507014046 63 306 9.0 13.0 0.00 0.00 0.00 87 1016.5
20260507013036 64 320 8.0 12.0 0.00 0.00 0.00 87 1016.6
20260507012045 64 291 6.0 15.0 0.00 0.00 0.00 88 1016.4
20260507011020 64 330 9.0 13.0 0.00 0.00 0.00 87 1016.4
20260507005042 64 270 10.0 16.0 0.00 0.00 0.00 87 1016.3
20260507004041 64 299 10.0 15.0 0.00 0.00 0.00 88 1016.3
20260507002058 64 314 10.0 18.0 0.00 0.00 0.00 88 1016.4
20260507001106 65 306 11.0 16.0 0.00 0.00 0.00 87 1016.6
20260507000034 65 307 8.0 16.0 0.00 0.00 0.00 87 1016.5
20260506235045 65 298 13.0 16.0 0.00 0.00 0.00 86 1016.5
20260506234040 65 275 10.0 15.0 0.00 0.00 0.00 86 1016.4
20260506233049 65 275 9.0 13.0 0.00 0.00 0.00 86 1016.4
20260506232027 65 305 9.0 14.0 0.00 0.00 0.00 86 1016.5
20260506231030 65 287 11.0 14.0 0.00 0.00 0.00 85 1016.6
20260506230040 66 293 8.0 12.0 0.00 0.00 0.00 84 1016.6
20260506225043 66 297 9.0 12.0 0.00 0.00 0.00 80 1016.7
20260506224042 66 285 9.0 13.0 0.00 0.00 0.00 79 1016.8
20260506222028 66 251 8.0 12.0 0.00 0.00 0.00 76 1017.1
20260506215021 67 297 6.0 12.0 0.00 0.00 0.00 80 1017.3
20260506214037 67 299 8.0 12.0 0.00 0.00 0.00 80 1017.4
20260506213035 66 280 9.0 12.0 0.00 0.00 0.00 82 1017.6
20260506212020 66 269 8.0 12.0 0.00 0.00 0.00 81 1017.6
20260506211033 66 253 7.0 12.0 0.00 0.00 0.00 82 1017.7
20260506210040 66 266 8.0 12.0 0.00 0.00 0.00 82 1017.8
20260506205026 66 259 9.0 13.0 0.00 0.00 0.00 82 1017.9
20260506203036 66 262 8.0 11.0 0.00 0.00 0.00 81 1018.1
20260506202021 65 272 8.0 12.0 0.00 0.00 0.00 82 1018.1
20260506192038 64 216 8.0 12.0 0.00 0.00 0.00 83 1018.8
20260506190030 64 258 8.0 12.0 0.00 0.00 0.00 84 1018.9
20260506185035 64 231 8.0 12.0 0.00 0.00 0.00 85 1019.1
20260506184031 63 214 9.0 13.0 0.00 0.00 0.00 86 1019.2
20260506183039 62 214 8.0 13.0 0.00 0.00 0.00 88 1019.1
20260506182032 62 185 6.0 9.0 0.00 0.00 0.00 88 1019.2
20260506181020 61 178 6.0 10.0 0.00 0.00 0.00 89 1019.2
20260506180028 61 191 5.0 10.0 0.00 0.00 0.00 89 1019.2
20260506175021 61 191 6.0 11.0 0.00 0.00 0.00 88 1019.1
20260506174038 61 189 7.0 10.0 0.00 0.00 0.00 89 1019.1
20260506173024 61 193 8.0 11.0 0.00 0.00 0.00 88 1019.1
20260506172024 61 196 9.0 0.0 0.00 0.00 0.00 88 1019.0
20260506171018 61 189 8.0 0.0 0.00 0.00 0.00 89 1018.9
20260506170027 61 188 8.0 0.0 0.00 0.00 0.00 88 1018.9
20260506165017 61 185 7.0 0.0 0.00 0.00 0.00 89 1018.9
20260506163031 61 191 6.0 0.0 0.00 0.00 0.00 87 1018.9
20260506162025 61 191 7.0 0.0 0.00 0.00 0.00 87 1019.0
20260506161035 61 185 6.0 0.0 0.00 0.00 0.00 87 1019.1
20260506160018 61 182 5.0 0.0 0.00 0.00 0.00 87 1019.1
20260506155031 61 179 5.0 0.0 0.00 0.00 0.00 87 1019.1
20260506154033 61 185 5.0 0.0 0.00 0.00 0.00 87 1018.9
20260506153023 61 185 4.0 0.0 0.00 0.00 0.00 87 1019.0
20260506152033 61 185 4.0 0.0 0.00 0.00 0.00 87 1019.0
20260506151027 61 185 4.0 0.0 0.00 0.00 0.00 87 1018.9
20260506150017 61 139 2.0 0.0 0.00 0.00 0.00 86 1019.0
20260506145027 61 139 2.0 0.0 0.00 0.00 0.00 85 1018.9
20260506144029 62 137 2.0 0.0 0.00 0.00 0.00 86 1018.8
20260506143023 61 137 3.0 0.0 0.00 0.00 0.00 86 1018.8
20260506142033 61 136 1.0 0.0 0.00 0.00 0.00 88 1018.7
20260506140049 57 136 0.0 0.0 0.00 0.00 0.00 91 1018.7
20260506133029 56 137 0.0 0.0 0.00 0.00 0.00 91 1018.4
20260506132036 56 136 0.0 0.0 0.00 0.00 0.00 91 1018.2
20260506131023 56 136 0.0 0.0 0.00 0.00 0.00 90 1018.1
20260506130020 56 136 0.0 0.0 0.00 0.00 0.00 90 1018.1
20260506125031 56 136 0.0 0.0 0.00 0.00 0.00 89 1018.1
20260506124028 57 136 0.0 1.0 0.00 0.00 0.00 89 1018.0
20260506123036 57 136 1.0 5.0 0.00 0.00 0.00 89 1017.8
20260506122024 57 136 4.0 6.0 0.00 0.00 0.00 89 1017.7
20260506121035 57 136 5.0 6.0 0.00 0.00 0.00 89 1017.7
20260506115029 57 136 4.0 6.0 0.00 0.00 0.00 90 1017.8